• In Belarus
  • List of Countries
  • For 7 days
  • Water Temperature
  • Satellite Maps
  • Weather Map
  • Weather Widgets
  • user-avatar
    Login

    Hourly Weather Rozhnyatov

    Today, 24 June, Sunday

    Time Temperature Precipitation Wind Pressure Humidity
    00:00 +10°C° 0 mm 2 mps 725 mmHg 93%
    01:00 +10°C° 0 mm 2 mps 725 mmHg 93%
    02:00 +9°C° 0 mm 2 mps 725 mmHg 94%
    03:00 +9°C° 0 mm 2 mps 725 mmHg 94%
    04:00 +9°C° 0 mm 2 mps 725 mmHg 93%
    05:00 +9°C° 0 mm 2 mps 725 mmHg 94%
    06:00 +10°C° 0 mm 2 mps 725 mmHg 94%
    07:00 +13°C° 0 mm 2 mps 725 mmHg 90%
    08:00 +13°C° 0 mm 3 mps 726 mmHg 84%
    09:00 +14°C° 0 mm 4 mps 726 mmHg 82%
    10:00 +15°C° 0 mm 4 mps 726 mmHg 80%
    11:00 +17°C° 0 mm 4 mps 726 mmHg 77%
    12:00 +18°C° 0 mm 4 mps 726 mmHg 75%
    13:00 +17°C° 0.1 mm 5 mps 726 mmHg 80%
    14:00 +17°C° 0.4 mm 4 mps 725 mmHg 89%
    15:00 +17°C° 0.4 mm 4 mps 725 mmHg 90%
    16:00 +14°C° 4.9 mm 3 mps 725 mmHg 94%
    17:00 +17°C° 0.3 mm 3 mps 725 mmHg 83%
    18:00 +18°C° 0 mm 3 mps 725 mmHg 80%
    19:00 +18°C° 0 mm 2 mps 725 mmHg 82%
    20:00 +17°C° 0 mm 2 mps 725 mmHg 90%
    21:00 +15°C° 0 mm 1 mps 725 mmHg 96%
    22:00 +15°C° 0 mm 1 mps 725 mmHg 99%
    23:00 +15°C° 0 mm 1 mps 725 mmHg 97%

    Tomorrow, 25 June, Monday

    Time Temperature Precipitation Wind Pressure Humidity
    00:00 +15°C° 0 mm 1 mps 725 mmHg 93%
    01:00 +14°C° 0 mm 0 mps 725 mmHg 89%
    02:00 +14°C° 0 mm 1 mps 725 mmHg 94%
    03:00 +13°C° 0 mm 1 mps 725 mmHg 95%
    04:00 +13°C° 0 mm 1 mps 725 mmHg 97%
    05:00 +12°C° 0 mm 1 mps 725 mmHg 99%
    06:00 +13°C° 0 mm 1 mps 726 mmHg 97%
    07:00 +14°C° 0 mm 1 mps 726 mmHg 95%
    08:00 +15°C° 0 mm 1 mps 727 mmHg 94%
    09:00 +15°C° 0 mm 0 mps 727 mmHg 89%
    10:00 +16°C° 0 mm 0 mps 727 mmHg 86%
    11:00 +19°C° 0 mm 1 mps 727 mmHg 85%
    12:00 +19°C° 0.1 mm 2 mps 727 mmHg 83%
    13:00 +19°C° 0 mm 0 mps 727 mmHg 76%
    14:00 +19°C° 0 mm 5 mps 727 mmHg 85%
    15:00 +18°C° 2.6 mm 3 mps 727 mmHg 91%
    16:00 +19°C° 0 mm 2 mps 727 mmHg 89%
    17:00 +18°C° 0 mm 3 mps 727 mmHg 90%
    18:00 +18°C° 0.2 mm 2 mps 727 mmHg 87%
    19:00 +18°C° 0 mm 2 mps 727 mmHg 91%
    20:00 +18°C° 0 mm 1 mps 727 mmHg 96%
    21:00 +16°C° 0 mm 1 mps 728 mmHg 99%
    22:00 +16°C° 0 mm 1 mps 728 mmHg 100%
    23:00 +16°C° 0 mm 1 mps 728 mmHg 100%

    Day after tomorrow, 26 June, Tuesday

    Time Temperature Precipitation Wind Pressure Humidity
    00:00 +16°C° 0 mm 1 mps 728 mmHg 100%
    01:00 +15°C° 0 mm 1 mps 728 mmHg 100%
    02:00 +15°C° 0 mm 1 mps 728 mmHg 100%
    03:00 +15°C° 0 mm 1 mps 728 mmHg 100%
    04:00 +14°C° 0 mm 1 mps 728 mmHg 100%
    05:00 +14°C° 0 mm 1 mps 728 mmHg 100%
    06:00 +14°C° 0 mm 1 mps 728 mmHg 100%
    07:00 +15°C° 0 mm 1 mps 728 mmHg 100%
    08:00 +15°C° 0 mm 1 mps 729 mmHg 100%
    09:00 +16°C° 0 mm 1 mps 729 mmHg 99%
    10:00 +18°C° 0 mm 1 mps 729 mmHg 97%
    11:00 +18°C° 0 mm 2 mps 729 mmHg 95%
    12:00 +19°C° 0 mm 3 mps 729 mmHg 93%
    13:00 +19°C° 0 mm 2 mps 728 mmHg 90%
    14:00 +21°C° 0 mm 1 mps 728 mmHg 88%
    15:00 +21°C° 0 mm 2 mps 728 mmHg 85%
    16:00 +21°C° 0 mm 2 mps 728 mmHg 85%
    17:00 +21°C° 0.1 mm 3 mps 728 mmHg 87%
    18:00 +20°C° 0.6 mm 4 mps 727 mmHg 88%
    19:00 +19°C° 0.6 mm 2 mps 728 mmHg 90%
    20:00 +18°C° 2 mm 2 mps 728 mmHg 97%
    21:00 +16°C° 4.8 mm 0 mps 728 mmHg 98%
    22:00 +18°C° 0 mm 1 mps 728 mmHg 99%
    23:00 +18°C° 1.5 mm 1 mps 728 mmHg 100%

    27 June, Wednesday

    Time Temperature Precipitation Wind Pressure Humidity
    00:00 +16°C° 2.2 mm 1 mps 728 mmHg 100%
    01:00 +16°C° 0.9 mm 1 mps 728 mmHg 100%
    02:00 +16°C° 0.5 mm 1 mps 728 mmHg 100%
    03:00 +16°C° 0 mm 1 mps 728 mmHg 100%
    04:00 +16°C° 0 mm 1 mps 727 mmHg 100%
    05:00 +15°C° 0 mm 0 mps 727 mmHg 100%
    06:00 +15°C° 0 mm 0 mps 727 mmHg 100%
    07:00 +15°C° 0 mm 0 mps 728 mmHg 100%
    08:00 +16°C° 0 mm 1 mps 727 mmHg 100%
    09:00 +18°C° 0 mm 1 mps 728 mmHg 98%
    10:00 +19°C° 0 mm 1 mps 728 mmHg 96%
    11:00 +18°C° 0 mm 2 mps 727 mmHg 96%
    12:00 +19°C° 0.8 mm 1 mps 727 mmHg 99%
    13:00 +20°C° 1.4 mm 1 mps 726 mmHg 97%
    14:00 +21°C° 0.7 mm 1 mps 726 mmHg 93%

    28 June, Thursday

    Time Temperature Precipitation Wind Pressure Humidity

    29 June, Friday

    Time Temperature Precipitation Wind Pressure Humidity
    Show more